Location: Aulus
(42.7909°N, 1.3399°E)
Time: 00:35:37
(UTC+00:00)

Cosmos 1814 Rocket - Pass Details

Date: 19 May 2025
Orbit: 740 x 783 km, 74.1° (Epoch: 18 June)

Event Time Altitude Azimuth Distance (km) Brightness Sun altitude
Rises 19:42:56 0° 181° (S) 3,162 6.9 -5.2°
Reaches altitude 10° 19:45:20 10° 175° (S) 2,246 6.1 -5.6°
Maximum altitude 19:50:10 46° 103° (ESE) 1,000 4.2 -6.3°
Drops below altitude 10° 19:55:04 10° 32° (NNE) 2,280 6.5 -7.1°
Sets 19:57:32 0° 26° (NNE) 3,215 7.4 -7.4°
